Time,TemperatureF,DewpointF,PressureIn,WindDirection,WindDirectionDegrees,WindSpeedMPH,WindSpeedGustMPH,Humidity,HourlyPrecipIn,Conditions,Clouds,dailyrainin,SoftwareType,DateUTC
2013-10-29 00:11:00,25.8,22.0,30.38,NE,49,0.0,1.0,84,0.00,,,0.01,weatherlink.com 1.10,2013-10-29 04:11:00,
2013-10-29 00:26:00,25.3,21.0,30.38,NE,49,0.0,1.0,85,0.00,,,0.01,weatherlink.com 1.10,2013-10-29 04:26:00,
2013-10-29 00:41:00,25.3,21.0,30.38,NE,50,0.0,1.0,84,0.00,,,0.01,weatherlink.com 1.10,2013-10-29 04:41:00,
2013-10-29 00:56:00,25.3,21.0,30.39,NE,49,0.0,0.0,84,0.00,,,0.01,weatherlink.com 1.10,2013-10-29 04:56:00,
2013-10-29 01:11:00,25.5,21.0,30.39,NE,50,0.0,0.0,84,0.00,,,0.01,weatherlink.com 1.10,2013-10-29 05:11:00,
2013-10-29 01:26:00,25.2,21.0,30.39,NE,50,0.0,0.0,85,0.00,,,0.01,weatherlink.com 1.10,2013-10-29 05:26:00,
2013-10-29 01:42:00,25.1,21.0,30.39,NE,49,0.0,0.0,84,0.00,,,0.01,weatherlink.com 1.10,2013-10-29 05:42:00,
2013-10-29 01:57:00,25.1,21.0,30.39,NE,50,0.0,0.0,84,0.00,,,0.01,weatherlink.com 1.10,2013-10-29 05:57:00,
2013-10-29 02:12:00,25.3,21.0,30.39,NE,49,0.0,0.0,84,0.00,,,0.01,weatherlink.com 1.10,2013-10-29 06:12:00,
2013-10-29 02:27:00,25.4,21.0,30.40,NNE,20,0.0,1.0,83,0.00,,,0.01,weatherlink.com 1.10,2013-10-29 06:27:00,
2013-10-29 02:42:00,25.4,21.0,30.40,NNE,20,0.0,0.0,84,0.00,,,0.01,weatherlink.com 1.10,2013-10-29 06:42:00,
2013-10-29 02:57:00,25.1,21.0,30.40,NNE,20,0.0,1.0,84,0.00,,,0.01,weatherlink.com 1.10,2013-10-29 06:57:00,
2013-10-29 03:12:00,25.2,21.0,30.40,NNE,20,0.0,0.0,85,0.00,,,0.00,weatherlink.com 1.10,2013-10-29 07:12:00,
2013-10-29 03:27:00,24.9,21.0,30.41,NNE,28,0.0,1.0,85,0.00,,,0.00,weatherlink.com 1.10,2013-10-29 07:27:00,
2013-10-29 03:42:00,24.1,21.0,30.41,NE,42,0.0,1.0,86,0.00,,,0.00,weatherlink.com 1.10,2013-10-29 07:42:00,
2013-10-29 03:57:00,22.9,19.0,30.41,NE,43,1.0,1.0,86,0.00,,,0.00,weatherlink.com 1.10,2013-10-29 07:57:00,
2013-10-29 04:12:00,22.9,19.0,30.41,North,-999,-999.0,-999.0,86,0.00,,,0.00,weatherlink.com 1.10,2013-10-29 08:12:00,
2013-10-29 04:27:00,22.9,19.0,30.41,North,-999,-999.0,-999.0,86,0.00,,,0.00,weatherlink.com 1.10,2013-10-29 08:27:00,
2013-10-29 04:42:00,22.9,19.0,30.41,North,-999,-999.0,-999.0,86,0.00,,,0.00,weatherlink.com 1.10,2013-10-29 08:42:00,
2013-10-29 04:57:00,22.9,19.0,30.42,North,-999,-999.0,-999.0,86,0.00,,,0.00,weatherlink.com 1.10,2013-10-29 08:57:00,
2013-10-29 05:12:00,22.9,19.0,30.42,North,-999,-999.0,-999.0,86,0.00,,,0.00,weatherlink.com 1.10,2013-10-29 09:12:00,
2013-10-29 05:27:00,22.9,19.0,30.42,North,-999,-999.0,-999.0,86,0.00,,,0.00,weatherlink.com 1.10,2013-10-29 09:27:00,
2013-10-29 05:42:00,22.9,19.0,30.43,North,-999,-999.0,-999.0,86,0.00,,,0.00,weatherlink.com 1.10,2013-10-29 09:42:00,
2013-10-29 05:57:00,22.9,19.0,30.43,North,-999,-999.0,-999.0,86,0.00,,,0.00,weatherlink.com 1.10,2013-10-29 09:57:00,
2013-10-29 06:12:00,22.9,19.0,30.43,North,-999,-999.0,-999.0,86,0.00,,,0.00,weatherlink.com 1.10,2013-10-29 10:12:00,
2013-10-29 06:28:00,22.9,19.0,30.43,North,-999,-999.0,-999.0,86,0.00,,,0.00,weatherlink.com 1.10,2013-10-29 10:28:00,
2013-10-29 06:43:00,22.9,19.0,30.43,North,-999,-999.0,-999.0,86,0.00,,,0.00,weatherlink.com 1.10,2013-10-29 10:43:00,
2013-10-29 06:58:00,22.9,19.0,30.44,North,-999,-999.0,-999.0,86,0.00,,,0.00,weatherlink.com 1.10,2013-10-29 10:58:00,
2013-10-29 07:13:00,22.9,19.0,30.44,North,-999,-999.0,-999.0,86,0.00,,,0.00,weatherlink.com 1.10,2013-10-29 11:13:00,
2013-10-29 07:28:00,22.9,19.0,30.44,North,-999,-999.0,-999.0,86,0.00,,,0.00,weatherlink.com 1.10,2013-10-29 11:28:00,
2013-10-29 07:43:00,22.9,19.0,30.44,North,-999,-999.0,-999.0,86,0.00,,,0.00,weatherlink.com 1.10,2013-10-29 11:43:00,
2013-10-29 07:58:00,25.3,22.0,30.45,NE,43,0.0,0.0,87,0.00,,,0.00,weatherlink.com 1.10,2013-10-29 11:58:00,
2013-10-29 08:13:00,27.1,22.0,30.45,ENE,75,1.0,1.0,82,0.00,,,0.00,weatherlink.com 1.10,2013-10-29 12:13:00,
2013-10-29 08:28:00,28.7,24.0,30.45,ENE,71,0.0,1.0,81,0.00,,,0.00,weatherlink.com 1.10,2013-10-29 12:28:00,
2013-10-29 08:43:00,29.2,23.0,30.46,South,179,0.0,1.0,79,0.00,,,0.00,weatherlink.com 1.10,2013-10-29 12:43:00,
2013-10-29 08:58:00,29.8,24.0,30.47,South,186,0.0,1.0,80,0.00,,,0.00,weatherlink.com 1.10,2013-10-29 12:58:00,
2013-10-29 09:13:00,30.8,25.0,30.47,SSW,209,0.0,1.0,78,0.00,,,0.00,weatherlink.com 1.10,2013-10-29 13:13:00,
2013-10-29 09:29:00,31.2,24.0,30.47,SSE,153,0.0,4.0,75,0.00,,,0.00,weatherlink.com 1.10,2013-10-29 13:29:00,
2013-10-29 09:43:00,32.0,24.0,30.47,SSE,163,3.0,3.0,73,0.00,,,0.00,weatherlink.com 1.10,2013-10-29 13:43:00,
2013-10-29 09:58:00,32.9,25.0,30.47,WSW,240,0.0,3.0,72,0.00,,,0.00,weatherlink.com 1.10,2013-10-29 13:58:00,
2013-10-29 10:13:00,34.0,24.0,30.47,ESE,107,0.0,2.0,67,0.00,,,0.00,weatherlink.com 1.10,2013-10-29 14:13:00,
2013-10-29 10:29:00,35.0,24.0,30.47,SSE,156,0.0,4.0,64,0.00,,,0.00,weatherlink.com 1.10,2013-10-29 14:29:00,
2013-10-29 10:44:00,34.9,24.0,30.47,ENE,78,2.0,5.0,65,0.00,,,0.00,weatherlink.com 1.10,2013-10-29 14:44:00,
2013-10-29 10:59:00,34.9,24.0,30.46,SSE,168,1.0,4.0,64,0.00,,,0.00,weatherlink.com 1.10,2013-10-29 14:59:00,
2013-10-29 11:14:00,35.9,25.0,30.45,NE,50,0.0,5.0,66,0.00,,,0.00,weatherlink.com 1.10,2013-10-29 15:14:00,
2013-10-29 11:29:00,35.7,23.0,30.45,East,86,0.0,4.0,61,0.00,,,0.00,weatherlink.com 1.10,2013-10-29 15:29:00,
2013-10-29 11:44:00,36.5,26.0,30.45,SSE,163,2.0,6.0,65,0.00,,,0.00,weatherlink.com 1.10,2013-10-29 15:44:00,
2013-10-29 11:59:00,36.3,24.0,30.45,ENE,71,2.0,5.0,62,0.00,,,0.00,weatherlink.com 1.10,2013-10-29 15:59:00,
2013-10-29 12:14:00,36.0,25.0,30.45,SE,134,0.0,3.0,64,0.00,,,0.00,weatherlink.com 1.10,2013-10-29 16:14:00,
2013-10-29 12:29:00,35.5,24.0,30.45,ENE,63,3.0,3.0,64,0.00,,,0.00,weatherlink.com 1.10,2013-10-29 16:29:00,
2013-10-29 12:44:00,36.0,23.0,30.44,West,268,1.0,2.0,59,0.00,,,0.00,weatherlink.com 1.10,2013-10-29 16:44:00,
2013-10-29 12:59:00,36.0,23.0,30.43,ENE,69,2.0,3.0,60,0.00,,,0.00,weatherlink.com 1.10,2013-10-29 16:59:00,
2013-10-29 13:14:00,35.8,22.0,30.43,WNW,286,0.0,3.0,57,0.00,,,0.00,weatherlink.com 1.10,2013-10-29 17:14:00,
2013-10-29 13:29:00,35.8,21.0,30.43,ENE,70,0.0,5.0,56,0.00,,,0.00,weatherlink.com 1.10,2013-10-29 17:29:00,
2013-10-29 13:44:00,36.3,23.0,30.42,WNW,303,0.0,3.0,60,0.00,,,0.00,weatherlink.com 1.10,2013-10-29 17:44:00,
2013-10-29 13:59:00,36.1,22.0,30.41,East,98,0.0,3.0,58,0.00,,,0.00,weatherlink.com 1.10,2013-10-29 17:59:00,
2013-10-29 14:14:00,36.2,22.0,30.41,ENE,63,0.0,4.0,57,0.00,,,0.00,weatherlink.com 1.10,2013-10-29 18:14:00,
2013-10-29 14:29:00,36.5,22.0,30.41,SW,231,0.0,3.0,56,0.00,,,0.00,weatherlink.com 1.10,2013-10-29 18:29:00,
2013-10-29 14:59:00,36.6,22.0,30.41,ENE,69,0.0,3.0,56,0.00,,,0.00,weatherlink.com 1.10,2013-10-29 18:59:00,
2013-10-29 15:14:00,36.6,21.0,30.41,ESE,115,0.0,2.0,54,0.00,,,0.00,weatherlink.com 1.10,2013-10-29 19:14:00,
2013-10-29 15:29:00,36.8,20.0,30.41,SE,130,1.0,2.0,50,0.00,,,0.00,weatherlink.com 1.10,2013-10-29 19:29:00,
2013-10-29 15:44:00,36.6,20.0,30.41,East,88,1.0,2.0,52,0.00,,,0.00,weatherlink.com 1.10,2013-10-29 19:44:00,
2013-10-29 15:59:00,36.1,21.0,30.41,SW,236,0.0,1.0,55,0.00,,,0.00,weatherlink.com 1.10,2013-10-29 19:59:00,
2013-10-29 16:14:00,35.7,21.0,30.41,East,92,0.0,1.0,56,0.00,,,0.00,weatherlink.com 1.10,2013-10-29 20:14:00,
2013-10-29 16:29:00,35.1,21.0,30.41,East,89,0.0,1.0,56,0.00,,,0.00,weatherlink.com 1.10,2013-10-29 20:29:00,
2013-10-29 16:44:00,34.0,22.0,30.40,East,89,0.0,2.0,62,0.00,,,0.00,weatherlink.com 1.10,2013-10-29 20:44:00,
2013-10-29 16:59:00,33.2,23.0,30.40,East,88,1.0,1.0,65,0.00,,,0.00,weatherlink.com 1.10,2013-10-29 20:59:00,
2013-10-29 17:14:00,31.8,23.0,30.40,East,86,1.0,2.0,71,0.00,,,0.00,weatherlink.com 1.10,2013-10-29 21:14:00,
2013-10-29 17:29:00,30.7,22.0,30.40,East,86,2.0,2.0,70,0.00,,,0.00,weatherlink.com 1.10,2013-10-29 21:29:00,
2013-10-29 17:44:00,30.0,22.0,30.40,ENE,69,1.0,2.0,72,0.00,,,0.00,weatherlink.com 1.10,2013-10-29 21:44:00,
2013-10-29 17:59:00,29.4,22.0,30.41,ENE,68,1.0,2.0,73,0.00,,,0.00,weatherlink.com 1.10,2013-10-29 21:59:00,
2013-10-29 18:14:00,28.8,21.0,30.41,ENE,63,2.0,3.0,72,0.00,,,0.00,weatherlink.com 1.10,2013-10-29 22:14:00,
2013-10-29 18:29:00,29.3,20.0,30.42,ENE,59,1.0,2.0,68,0.00,,,0.00,weatherlink.com 1.10,2013-10-29 22:29:00,
2013-10-29 18:44:00,28.9,21.0,30.42,ENE,59,2.0,2.0,71,0.00,,,0.00,weatherlink.com 1.10,2013-10-29 22:44:00,
2013-10-29 18:59:00,29.0,22.0,30.43,ENE,59,1.0,2.0,74,0.00,,,0.00,weatherlink.com 1.10,2013-10-29 22:59:00,
2013-10-29 19:14:00,28.8,21.0,30.43,ENE,59,0.0,0.0,73,0.00,,,0.00,weatherlink.com 1.10,2013-10-29 23:14:00,
2013-10-29 19:29:00,28.9,20.0,30.42,ENE,59,0.0,0.0,68,0.00,,,0.00,weatherlink.com 1.10,2013-10-29 23:29:00,
2013-10-29 19:44:00,28.7,20.0,30.42,ENE,59,0.0,0.0,69,0.00,,,0.00,weatherlink.com 1.10,2013-10-29 23:44:00,
2013-10-29 19:59:00,28.4,19.0,30.43,NE,53,0.0,0.0,68,0.00,,,0.00,weatherlink.com 1.10,2013-10-29 23:59:00,
2013-10-29 20:14:00,27.8,21.0,30.43,NE,56,0.0,0.0,75,0.00,,,0.00,weatherlink.com 1.10,2013-10-30 00:14:00,
2013-10-29 20:29:00,28.2,20.0,30.43,NE,56,0.0,0.0,72,0.00,,,0.00,weatherlink.com 1.10,2013-10-30 00:29:00,
2013-10-29 20:44:00,28.0,19.0,30.42,NE,56,0.0,0.0,70,0.00,,,0.00,weatherlink.com 1.10,2013-10-30 00:44:00,
2013-10-29 20:59:00,27.7,19.0,30.42,NE,56,0.0,0.0,71,0.00,,,0.00,weatherlink.com 1.10,2013-10-30 00:59:00,
2013-10-29 21:14:00,27.6,20.0,30.42,ENE,57,0.0,0.0,73,0.00,,,0.00,weatherlink.com 1.10,2013-10-30 01:14:00,
2013-10-29 21:29:00,27.4,19.0,30.41,ENE,57,0.0,0.0,70,0.00,,,0.00,weatherlink.com 1.10,2013-10-30 01:29:00,
2013-10-29 21:44:00,27.9,19.0,30.41,ENE,57,0.0,0.0,68,0.00,,,0.00,weatherlink.com 1.10,2013-10-30 01:44:00,
2013-10-29 21:59:00,28.1,20.0,30.40,NE,56,0.0,0.0,73,0.00,,,0.00,weatherlink.com 1.10,2013-10-30 01:59:00,
2013-10-29 22:14:00,28.0,20.0,30.39,NE,56,0.0,0.0,73,0.00,,,0.00,weatherlink.com 1.10,2013-10-30 02:14:00,
2013-10-29 22:29:00,27.9,21.0,30.39,NE,56,0.0,0.0,76,0.00,,,0.00,weatherlink.com 1.10,2013-10-30 02:29:00,
2013-10-29 22:44:00,27.3,19.0,30.39,NE,56,0.0,0.0,72,0.00,,,0.00,weatherlink.com 1.10,2013-10-30 02:44:00,
2013-10-29 22:59:00,27.5,20.0,30.39,ENE,57,0.0,0.0,73,0.00,,,0.00,weatherlink.com 1.10,2013-10-30 02:59:00,
2013-10-29 23:14:00,27.7,20.0,30.39,NE,56,0.0,0.0,74,0.00,,,0.00,weatherlink.com 1.10,2013-10-30 03:14:00,
2013-10-29 23:29:00,27.7,20.0,30.38,NE,56,0.0,0.0,74,0.00,,,0.00,weatherlink.com 1.10,2013-10-30 03:29:00,
2013-10-29 23:44:00,27.8,21.0,30.38,NE,56,0.0,0.0,74,0.00,,,0.00,weatherlink.com 1.10,2013-10-30 03:44:00,
2013-10-29 23:59:00,28.0,19.0,30.38,NE,56,0.0,0.0,70,0.00,,,0.00,weatherlink.com 1.10,2013-10-30 03:59:00,